Time,TemperatureF,DewpointF,PressureIn,WindDirection,WindDirectionDegrees,WindSpeedMPH,WindSpeedGustMPH,Humidity,HourlyPrecipIn,Conditions,Clouds,dailyrainin,SoftwareType,DateUTC
2013-02-06 00:00:00,36.8,32.1,29.95,South,191,0.0,4.0,83,0.00,,---,0.00,VWS V14.01,2013-02-06 05:00:00,
2013-02-06 00:05:00,37.2,32.2,29.94,South,191,0.0,1.0,82,0.00,,---,0.00,VWS V14.01,2013-02-06 05:05:00,
2013-02-06 00:10:00,37.3,32.0,29.95,South,191,0.0,1.0,81,0.00,,---,0.00,VWS V14.01,2013-02-06 05:10:00,
2013-02-06 00:15:00,37.2,31.9,29.94,South,191,0.0,2.0,81,0.00,,---,0.00,VWS V14.01,2013-02-06 05:15:00,
2013-02-06 00:20:00,37.1,32.1,29.94,South,191,2.0,3.0,82,0.00,,---,0.00,VWS V14.01,2013-02-06 05:20:00,
2013-02-06 00:25:00,37.1,32.1,29.95,South,191,2.0,3.0,82,0.00,,---,0.00,VWS V14.01,2013-02-06 05:25:00,
2013-02-06 00:30:00,37.1,32.1,29.95,South,191,0.0,3.0,82,0.00,,---,0.00,VWS V14.01,2013-02-06 05:30:00,
2013-02-06 00:35:00,37.2,32.2,29.95,South,191,2.0,3.0,82,0.00,,---,0.00,VWS V14.01,2013-02-06 05:35:00,
2013-02-06 00:40:00,37.3,32.3,29.95,SSE,168,0.0,3.0,82,0.00,,---,0.00,VWS V14.01,2013-02-06 05:40:00,
2013-02-06 00:45:00,37.5,32.5,29.95,South,169,0.0,3.0,82,0.00,,---,0.00,VWS V14.01,2013-02-06 05:45:00,
2013-02-06 00:50:00,37.7,32.7,29.94,South,169,0.0,3.0,82,0.00,,---,0.00,VWS V14.01,2013-02-06 05:50:00,
2013-02-06 00:55:00,37.8,32.5,29.94,SSE,168,1.0,3.0,81,0.00,,---,0.00,VWS V14.01,2013-02-06 05:55:00,
2013-02-06 01:00:00,37.5,32.2,29.95,NNE,24,0.0,3.0,81,0.00,,---,0.00,VWS V14.01,2013-02-06 06:00:00,
2013-02-06 01:05:00,37.1,32.1,29.94,NNE,24,0.0,2.0,82,0.00,,---,0.00,VWS V14.01,2013-02-06 06:05:00,
2013-02-06 01:10:00,36.9,31.9,29.94,NNE,24,3.0,3.0,82,0.00,,---,0.00,VWS V14.01,2013-02-06 06:10:00,
2013-02-06 01:15:00,36.6,31.9,29.95,NW,321,0.0,4.0,83,0.00,,---,0.00,VWS V14.01,2013-02-06 06:15:00,
2013-02-06 01:20:00,36.5,31.8,29.95,NW,321,2.0,4.0,83,0.00,,---,0.00,VWS V14.01,2013-02-06 06:20:00,
2013-02-06 01:25:00,36.2,31.5,29.95,NW,321,0.0,4.0,83,0.00,,---,0.00,VWS V14.01,2013-02-06 06:25:00,
2013-02-06 01:30:00,36.0,31.4,29.95,NW,321,2.0,4.0,83,0.00,,---,0.00,VWS V14.01,2013-02-06 06:30:00,
2013-02-06 01:35:00,35.9,31.5,29.94,NW,319,0.0,3.0,84,0.00,,---,0.00,VWS V14.01,2013-02-06 06:35:00,
2013-02-06 01:40:00,35.6,31.2,29.94,NW,320,1.0,4.0,84,0.00,,---,0.00,VWS V14.01,2013-02-06 06:40:00,
2013-02-06 01:45:00,35.4,31.1,29.94,NW,320,0.0,4.0,84,0.00,,---,0.00,VWS V14.01,2013-02-06 06:45:00,
2013-02-06 01:50:00,35.3,31.0,29.94,NW,320,0.0,4.0,84,0.00,,---,0.00,VWS V14.01,2013-02-06 06:50:00,
2013-02-06 01:55:00,35.3,31.2,29.94,NW,320,0.0,4.0,85,0.00,,---,0.00,VWS V14.01,2013-02-06 06:55:00,
2013-02-06 02:00:00,35.3,31.2,29.94,NW,320,0.0,4.0,85,0.00,,---,0.00,VWS V14.01,2013-02-06 07:00:00,
2013-02-06 02:05:00,35.1,31.0,29.94,NW,320,2.0,4.0,85,0.00,,---,0.00,VWS V14.01,2013-02-06 07:05:00,
2013-02-06 02:10:00,34.6,30.9,29.93,NW,320,0.0,4.0,86,0.00,,---,0.00,VWS V14.01,2013-02-06 07:10:00,
2013-02-06 02:15:00,34.4,30.6,29.94,NW,320,0.0,4.0,86,0.00,,---,0.00,VWS V14.01,2013-02-06 07:15:00,
2013-02-06 02:20:00,34.2,30.5,29.94,NW,306,2.0,5.0,86,0.00,,---,0.00,VWS V14.01,2013-02-06 07:20:00,
2013-02-06 02:25:00,33.9,30.2,29.94,NW,310,1.0,5.0,86,0.00,,---,0.00,VWS V14.01,2013-02-06 07:25:00,
2013-02-06 02:30:00,33.9,30.5,29.95,NW,310,3.0,5.0,87,0.00,,---,0.00,VWS V14.01,2013-02-06 07:30:00,
2013-02-06 02:35:00,33.8,30.6,29.95,NW,310,0.0,3.0,88,0.00,,---,0.00,VWS V14.01,2013-02-06 07:35:00,
2013-02-06 02:40:00,33.8,30.6,29.95,NW,310,0.0,3.0,88,0.00,,---,0.00,VWS V14.01,2013-02-06 07:40:00,
2013-02-06 02:45:00,33.9,30.7,29.95,NW,310,1.0,3.0,88,0.00,,---,0.00,VWS V14.01,2013-02-06 07:45:00,
2013-02-06 02:50:00,34.0,30.8,29.96,WNW,287,3.0,3.0,88,0.00,,---,0.00,VWS V14.01,2013-02-06 07:50:00,
2013-02-06 02:55:00,34.2,31.0,29.96,SW,214,3.0,4.0,88,0.00,,---,0.00,VWS V14.01,2013-02-06 07:55:00,
2013-02-06 03:00:00,34.3,31.1,29.96,SSW,207,3.0,4.0,88,0.00,,---,0.00,VWS V14.01,2013-02-06 08:00:00,
2013-02-06 03:05:00,34.4,31.5,29.96,SSW,207,1.0,2.0,89,0.00,,---,0.00,VWS V14.01,2013-02-06 08:05:00,
2013-02-06 03:10:00,34.4,31.5,29.96,SSW,207,1.0,2.0,89,0.00,,---,0.00,VWS V14.01,2013-02-06 08:10:00,
2013-02-06 03:15:00,34.5,31.3,29.97,SSW,207,0.0,2.0,88,0.00,,---,0.00,VWS V14.01,2013-02-06 08:15:00,
2013-02-06 03:20:00,34.6,31.4,29.96,SSW,207,1.0,2.0,88,0.00,,---,0.00,VWS V14.01,2013-02-06 08:20:00,
2013-02-06 03:25:00,34.7,31.5,29.97,SSW,207,1.0,2.0,88,0.00,,---,0.00,VWS V14.01,2013-02-06 08:25:00,
2013-02-06 03:30:00,34.9,31.7,29.97,SSW,206,0.0,2.0,88,0.00,,---,0.00,VWS V14.01,2013-02-06 08:30:00,
2013-02-06 03:34:00,35.1,31.9,29.97,SSW,206,0.0,1.0,88,0.00,,---,0.00,VWS V14.01,2013-02-06 08:34:00,
2013-02-06 03:39:00,35.3,32.1,29.97,SSW,206,0.0,1.0,88,0.00,,---,0.00,VWS V14.01,2013-02-06 08:39:00,
2013-02-06 03:44:00,35.3,32.1,29.97,SSW,207,1.0,2.0,88,0.00,,---,0.00,VWS V14.01,2013-02-06 08:44:00,
2013-02-06 03:49:00,35.3,32.1,29.97,SSW,207,2.0,2.0,88,0.00,,---,0.00,VWS V14.01,2013-02-06 08:49:00,
2013-02-06 03:54:00,35.4,32.2,29.97,SSW,207,0.0,2.0,88,0.00,,---,0.00,VWS V14.01,2013-02-06 08:54:00,
2013-02-06 03:59:00,35.5,32.3,29.97,SSW,207,1.0,2.0,88,0.00,,---,0.00,VWS V14.01,2013-02-06 08:59:00,
2013-02-06 04:04:00,35.6,32.1,29.98,SSW,207,1.0,1.0,87,0.00,,---,0.00,VWS V14.01,2013-02-06 09:04:00,
2013-02-06 04:09:00,35.6,32.1,29.98,SSW,206,0.0,2.0,87,0.00,,---,0.00,VWS V14.01,2013-02-06 09:09:00,
2013-02-06 04:14:00,35.7,32.2,29.98,SSW,206,0.0,2.0,87,0.00,,---,0.00,VWS V14.01,2013-02-06 09:14:00,
2013-02-06 04:19:00,35.9,32.4,29.98,SSW,207,0.0,2.0,87,0.00,,---,0.00,VWS V14.01,2013-02-06 09:19:00,
2013-02-06 04:24:00,35.9,32.4,29.99,SSW,207,0.0,2.0,87,0.00,,---,0.00,VWS V14.01,2013-02-06 09:24:00,
2013-02-06 04:29:00,35.6,31.8,29.99,SW,220,1.0,3.0,86,0.00,,---,0.00,VWS V14.01,2013-02-06 09:29:00,
2013-02-06 04:34:00,35.3,31.8,30.00,NNE,26,2.0,4.0,87,0.00,,---,0.00,VWS V14.01,2013-02-06 09:34:00,
2013-02-06 04:39:00,35.1,31.6,30.00,NNE,18,2.0,6.0,87,0.00,,---,0.00,VWS V14.01,2013-02-06 09:39:00,
2013-02-06 04:44:00,34.6,31.1,30.01,NNW,348,3.0,6.0,87,0.00,,---,0.00,VWS V14.01,2013-02-06 09:44:00,
2013-02-06 04:49:00,34.5,31.0,30.01,North,5,1.0,6.0,87,0.00,,---,0.00,VWS V14.01,2013-02-06 09:49:00,
2013-02-06 04:54:00,34.5,31.3,30.01,North,5,1.0,6.0,88,0.00,,---,0.00,VWS V14.01,2013-02-06 09:54:00,
2013-02-06 04:59:00,34.7,31.5,30.01,North,360,1.0,6.0,88,0.00,,---,0.00,VWS V14.01,2013-02-06 09:59:00,
2013-02-06 05:04:00,34.7,31.5,30.02,North,5,1.0,2.0,88,0.00,,---,0.00,VWS V14.01,2013-02-06 10:04:00,
2013-02-06 05:09:00,34.5,31.0,30.03,North,5,1.0,2.0,87,0.00,,---,0.00,VWS V14.01,2013-02-06 10:09:00,
2013-02-06 05:14:00,34.4,30.9,30.03,North,5,0.0,2.0,87,0.00,,---,0.00,VWS V14.01,2013-02-06 10:14:00,
2013-02-06 05:19:00,34.4,30.9,30.03,North,360,1.0,3.0,87,0.00,,---,0.00,VWS V14.01,2013-02-06 10:19:00,
2013-02-06 05:24:00,34.4,31.2,30.04,North,5,0.0,3.0,88,0.00,,---,0.00,VWS V14.01,2013-02-06 10:24:00,
2013-02-06 05:29:00,34.4,31.2,30.04,North,5,0.0,3.0,88,0.00,,---,0.00,VWS V14.01,2013-02-06 10:29:00,
2013-02-06 05:34:00,34.4,31.2,30.04,North,5,0.0,1.0,88,0.00,,---,0.00,VWS V14.01,2013-02-06 10:34:00,
2013-02-06 05:39:00,34.4,31.2,30.04,North,360,3.0,3.0,88,0.00,,---,0.00,VWS V14.01,2013-02-06 10:39:00,
2013-02-06 05:44:00,34.4,31.2,30.04,North,360,1.0,3.0,88,0.00,,---,0.00,VWS V14.01,2013-02-06 10:44:00,
2013-02-06 05:49:00,34.4,31.2,30.04,North,360,0.0,3.0,88,0.00,,---,0.00,VWS V14.01,2013-02-06 10:49:00,
2013-02-06 05:54:00,34.3,31.1,30.04,North,5,0.0,3.0,88,0.00,,---,0.00,VWS V14.01,2013-02-06 10:54:00,
2013-02-06 05:59:00,34.1,30.9,30.04,West,272,3.0,3.0,88,0.00,,---,0.00,VWS V14.01,2013-02-06 10:59:00,
2013-02-06 06:04:00,34.8,31.6,30.05,NNW,342,1.0,3.0,88,0.00,,---,0.00,VWS V14.01,2013-02-06 11:04:00,
2013-02-06 06:09:00,35.1,31.6,30.06,NNW,342,0.0,3.0,87,0.00,,---,0.00,VWS V14.01,2013-02-06 11:09:00,
2013-02-06 06:14:00,34.9,31.1,30.06,NW,309,0.0,4.0,86,0.00,,---,0.00,VWS V14.01,2013-02-06 11:14:00,
2013-02-06 06:19:00,34.6,30.9,30.06,NW,309,0.0,4.0,86,0.00,,---,0.00,VWS V14.01,2013-02-06 11:19:00,
2013-02-06 06:24:00,34.4,30.6,30.06,NW,309,0.0,4.0,86,0.00,,---,0.00,VWS V14.01,2013-02-06 11:24:00,
2013-02-06 06:29:00,34.1,30.4,30.06,SSW,213,1.0,4.0,86,0.00,,---,0.00,VWS V14.01,2013-02-06 11:29:00,
2013-02-06 06:34:00,33.8,30.1,30.07,SSW,213,1.0,3.0,86,0.00,,---,0.00,VWS V14.01,2013-02-06 11:34:00,
2013-02-06 06:39:00,33.6,29.9,30.07,SW,215,0.0,3.0,86,0.00,,---,0.00,VWS V14.01,2013-02-06 11:39:00,
2013-02-06 06:44:00,33.5,29.8,30.07,SW,214,1.0,3.0,86,0.00,,---,0.00,VWS V14.01,2013-02-06 11:44:00,
2013-02-06 06:49:00,33.1,29.4,30.08,SW,214,2.0,3.0,86,0.00,,---,0.00,VWS V14.01,2013-02-06 11:49:00,
2013-02-06 06:54:00,32.7,29.0,30.09,SW,214,0.0,3.0,86,0.00,,---,0.00,VWS V14.01,2013-02-06 11:54:00,
2013-02-06 06:59:00,32.7,29.3,30.10,SW,215,0.0,3.0,87,0.00,,---,0.00,VWS V14.01,2013-02-06 11:59:00,
2013-02-06 07:04:00,32.8,29.4,30.10,SW,215,0.0,0.0,87,0.00,,---,0.00,VWS V14.01,2013-02-06 12:04:00,
2013-02-06 07:09:00,32.7,29.5,30.11,SW,215,1.0,2.0,88,0.00,,---,0.00,VWS V14.01,2013-02-06 12:09:00,
2013-02-06 07:14:00,32.5,29.1,30.11,SW,214,0.0,2.0,87,0.00,,---,0.00,VWS V14.01,2013-02-06 12:14:00,
2013-02-06 07:19:00,32.3,28.9,30.12,SW,214,1.0,2.0,87,0.00,,---,0.00,VWS V14.01,2013-02-06 12:19:00,
2013-02-06 07:24:00,32.0,28.6,30.12,SW,215,1.0,2.0,87,0.00,,---,0.00,VWS V14.01,2013-02-06 12:24:00,
2013-02-06 07:29:00,32.0,28.9,30.12,SW,215,0.0,2.0,88,0.00,,---,0.00,VWS V14.01,2013-02-06 12:29:00,
2013-02-06 07:34:00,32.1,29.0,30.13,SW,215,1.0,2.0,88,0.00,,---,0.00,VWS V14.01,2013-02-06 12:34:00,
2013-02-06 07:39:00,32.5,29.4,30.13,SSE,167,2.0,4.0,88,0.00,,---,0.00,VWS V14.01,2013-02-06 12:39:00,
2013-02-06 07:44:00,33.1,29.7,30.13,SSE,167,0.0,4.0,87,0.00,,---,0.00,VWS V14.01,2013-02-06 12:44:00,
2013-02-06 07:49:00,33.6,29.9,30.14,SSE,165,1.0,4.0,86,0.00,,---,0.00,VWS V14.01,2013-02-06 12:49:00,
2013-02-06 07:54:00,34.4,30.4,30.14,South,175,3.0,4.0,85,0.00,,---,0.00,VWS V14.01,2013-02-06 12:54:00,
2013-02-06 07:59:00,34.8,30.2,30.14,South,175,0.0,4.0,83,0.00,,---,0.00,VWS V14.01,2013-02-06 12:59:00,
2013-02-06 08:04:00,35.1,29.9,30.14,South,175,0.0,4.0,81,0.00,,---,0.00,VWS V14.01,2013-02-06 13:04:00,
2013-02-06 08:09:00,35.3,29.8,30.15,South,175,0.0,4.0,80,0.00,,---,0.00,VWS V14.01,2013-02-06 13:09:00,
2013-02-06 08:14:00,35.5,29.6,30.15,South,175,2.0,4.0,79,0.00,,---,0.00,VWS V14.01,2013-02-06 13:14:00,
2013-02-06 08:19:00,35.5,29.6,30.15,South,175,1.0,4.0,79,0.00,,---,0.00,VWS V14.01,2013-02-06 13:19:00,
2013-02-06 08:24:00,35.7,29.5,30.15,South,175,0.0,4.0,78,0.00,,---,0.00,VWS V14.01,2013-02-06 13:24:00,
2013-02-06 08:29:00,36.4,29.9,30.15,South,175,2.0,4.0,77,0.00,,---,0.00,VWS V14.01,2013-02-06 13:29:00,
2013-02-06 08:34:00,37.4,30.5,30.15,WNW,295,1.0,3.0,76,0.00,,---,0.00,VWS V14.01,2013-02-06 13:34:00,
2013-02-06 08:39:00,38.0,30.8,30.15,WNW,297,3.0,3.0,75,0.00,,---,0.00,VWS V14.01,2013-02-06 13:39:00,
2013-02-06 08:44:00,38.4,30.9,30.16,North,355,3.0,4.0,74,0.00,,---,0.00,VWS V14.01,2013-02-06 13:44:00,
2013-02-06 08:49:00,38.7,31.1,30.16,North,355,3.0,4.0,74,0.00,,---,0.00,VWS V14.01,2013-02-06 13:49:00,
2013-02-06 08:54:00,38.9,31.0,30.16,North,360,3.0,5.0,73,0.00,,---,0.00,VWS V14.01,2013-02-06 13:54:00,
2013-02-06 08:59:00,39.3,31.0,30.16,NNE,13,3.0,5.0,72,0.00,,---,0.00,VWS V14.01,2013-02-06 13:59:00,
2013-02-06 09:04:00,39.6,31.3,30.17,NNE,14,2.0,4.0,72,0.00,,---,0.00,VWS V14.01,2013-02-06 14:04:00,
2013-02-06 09:09:00,40.0,31.7,30.17,East,101,2.0,4.0,72,0.00,,---,0.00,VWS V14.01,2013-02-06 14:09:00,
2013-02-06 09:14:00,40.4,31.8,30.17,East,96,4.0,4.0,71,0.00,,---,0.00,VWS V14.01,2013-02-06 14:14:00,
2013-02-06 09:19:00,40.5,31.9,30.17,East,96,3.0,5.0,71,0.00,,---,0.00,VWS V14.01,2013-02-06 14:19:00,
2013-02-06 09:24:00,41.1,32.1,30.17,East,96,0.0,5.0,70,0.00,,---,0.00,VWS V14.01,2013-02-06 14:24:00,
2013-02-06 09:29:00,41.4,31.6,30.17,NNW,337,2.0,5.0,68,0.00,,---,0.00,VWS V14.01,2013-02-06 14:29:00,
2013-02-06 09:34:00,41.5,31.0,30.18,West,259,3.0,9.0,66,0.00,,---,0.00,VWS V14.01,2013-02-06 14:34:00,
2013-02-06 09:39:00,41.9,30.6,30.18,WNW,298,4.0,9.0,64,0.00,,---,0.00,VWS V14.01,2013-02-06 14:39:00,
2013-02-06 09:44:00,41.9,29.9,30.18,West,278,7.0,9.0,62,0.00,,---,0.00,VWS V14.01,2013-02-06 14:44:00,
2013-02-06 09:49:00,42.0,29.5,30.18,WSW,256,5.0,11.0,61,0.00,,---,0.00,VWS V14.01,2013-02-06 14:49:00,
2013-02-06 09:54:00,42.2,29.3,30.18,West,280,2.0,11.0,60,0.00,,---,0.00,VWS V14.01,2013-02-06 14:54:00,
2013-02-06 09:59:00,42.1,28.8,30.18,WNW,283,5.0,11.0,59,0.00,,---,0.00,VWS V14.01,2013-02-06 14:59:00,
2013-02-06 10:04:00,42.3,29.4,30.18,WSW,239,5.0,11.0,60,0.00,,---,0.00,VWS V14.01,2013-02-06 15:04:00,
2013-02-06 10:09:00,42.4,29.1,30.19,WSW,243,4.0,14.0,59,0.00,,---,0.00,VWS V14.01,2013-02-06 15:09:00,
2013-02-06 10:14:00,42.2,28.9,30.19,WNW,295,7.0,14.0,59,0.00,,---,0.00,VWS V14.01,2013-02-06 15:14:00,
2013-02-06 10:19:00,42.1,29.2,30.19,NW,324,4.0,14.0,60,0.00,,---,0.00,VWS V14.01,2013-02-06 15:19:00,
2013-02-06 10:24:00,42.3,28.6,30.19,WSW,252,1.0,14.0,58,0.00,,---,0.00,VWS V14.01,2013-02-06 15:24:00,
2013-02-06 10:29:00,42.2,28.5,30.19,West,281,1.0,14.0,58,0.00,,---,0.00,VWS V14.01,2013-02-06 15:29:00,
2013-02-06 10:34:00,42.7,29.4,30.20,WSW,254,8.0,10.0,59,0.00,,---,0.00,VWS V14.01,2013-02-06 15:34:00,
2013-02-06 10:39:00,42.8,28.6,30.20,NW,321,5.0,10.0,57,0.00,,---,0.00,VWS V14.01,2013-02-06 15:39:00,
2013-02-06 10:43:00,43.0,28.4,30.20,WSW,256,6.0,11.0,56,0.00,,---,0.00,VWS V14.01,2013-02-06 15:43:00,
2013-02-06 10:48:00,42.7,27.7,30.20,NW,322,7.0,11.0,55,0.00,,---,0.00,VWS V14.01,2013-02-06 15:48:00,
2013-02-06 10:53:00,42.8,28.6,30.20,West,268,1.0,12.0,57,0.00,,---,0.00,VWS V14.01,2013-02-06 15:53:00,
2013-02-06 10:58:00,43.3,28.7,30.20,West,269,5.0,12.0,56,0.00,,---,0.00,VWS V14.01,2013-02-06 15:58:00,
2013-02-06 11:03:00,43.4,27.9,30.20,WSW,249,4.0,12.0,54,0.00,,---,0.00,VWS V14.01,2013-02-06 16:03:00,
2013-02-06 11:08:00,43.7,28.2,30.20,WSW,254,6.0,12.0,54,0.00,,---,0.00,VWS V14.01,2013-02-06 16:08:00,
2013-02-06 11:13:00,43.9,29.2,30.20,WNW,300,6.0,12.0,56,0.00,,---,0.00,VWS V14.01,2013-02-06 16:13:00,
2013-02-06 11:18:00,43.8,28.2,30.20,NW,306,5.0,12.0,54,0.00,,---,0.00,VWS V14.01,2013-02-06 16:18:00,
2013-02-06 11:23:00,43.6,27.6,30.20,NW,317,6.0,16.0,53,0.00,,---,0.00,VWS V14.01,2013-02-06 16:23:00,
2013-02-06 11:28:00,43.4,27.9,30.21,NW,310,3.0,16.0,54,0.00,,---,0.00,VWS V14.01,2013-02-06 16:28:00,
2013-02-06 11:33:00,43.5,28.0,30.21,NW,321,4.0,13.0,54,0.00,,---,0.00,VWS V14.01,2013-02-06 16:33:00,
2013-02-06 11:38:00,43.8,27.8,30.20,WNW,286,4.0,13.0,53,0.00,,---,0.00,VWS V14.01,2013-02-06 16:38:00,
2013-02-06 11:43:00,43.8,27.8,30.20,WNW,302,5.0,13.0,53,0.00,,---,0.00,VWS V14.01,2013-02-06 16:43:00,
2013-02-06 11:48:00,43.9,27.9,30.20,NW,322,14.0,14.0,53,0.00,,---,0.00,VWS V14.01,2013-02-06 16:48:00,
2013-02-06 11:53:00,43.6,28.5,30.20,West,277,6.0,14.0,55,0.00,,---,0.00,VWS V14.01,2013-02-06 16:53:00,
2013-02-06 11:58:00,43.5,28.0,30.20,WNW,298,2.0,14.0,54,0.00,,---,0.00,VWS V14.01,2013-02-06 16:58:00,
2013-02-06 12:03:00,43.6,28.1,30.20,West,265,1.0,6.0,54,0.00,,---,0.00,VWS V14.01,2013-02-06 17:03:00,
2013-02-06 12:08:00,43.6,28.1,30.20,WNW,286,1.0,7.0,54,0.00,,---,0.00,VWS V14.01,2013-02-06 17:08:00,
2013-02-06 12:13:00,43.5,28.0,30.20,North,360,0.0,10.0,54,0.00,,---,0.00,VWS V14.01,2013-02-06 17:13:00,
2013-02-06 12:18:00,44.0,28.4,30.20,NW,306,3.0,12.0,54,0.00,,---,0.00,VWS V14.01,2013-02-06 17:18:00,
2013-02-06 12:23:00,43.8,27.8,30.20,WSW,248,6.0,12.0,53,0.00,,---,0.00,VWS V14.01,2013-02-06 17:23:00,
2013-02-06 12:28:00,43.7,28.2,30.20,WSW,240,6.0,12.0,54,0.00,,---,0.00,VWS V14.01,2013-02-06 17:28:00,
2013-02-06 12:33:00,44.3,28.3,30.20,WNW,287,5.0,9.0,53,0.00,,---,0.00,VWS V14.01,2013-02-06 17:33:00,
2013-02-06 12:38:00,44.6,28.1,30.20,WSW,250,5.0,10.0,52,0.00,,---,0.00,VWS V14.01,2013-02-06 17:38:00,
2013-02-06 12:43:00,45.2,29.1,30.19,NNW,340,4.0,10.0,53,0.00,,---,0.00,VWS V14.01,2013-02-06 17:43:00,
2013-02-06 12:48:00,45.5,28.4,30.19,WNW,302,0.0,10.0,51,0.00,,---,0.00,VWS V14.01,2013-02-06 17:48:00,
2013-02-06 12:53:00,45.8,28.7,30.20,WSW,239,4.0,10.0,51,0.00,,---,0.00,VWS V14.01,2013-02-06 17:53:00,
2013-02-06 12:58:00,45.7,28.6,30.20,NW,319,2.0,10.0,51,0.00,,---,0.00,VWS V14.01,2013-02-06 17:58:00,
2013-02-06 13:03:00,45.9,28.8,30.20,West,281,2.0,9.0,51,0.00,,---,0.00,VWS V14.01,2013-02-06 18:03:00,
2013-02-06 13:08:00,45.8,28.7,30.20,NW,306,2.0,11.0,51,0.00,,---,0.00,VWS V14.01,2013-02-06 18:08:00,
2013-02-06 13:13:00,45.4,28.4,30.20,SSW,211,9.0,11.0,51,0.00,,---,0.00,VWS V14.01,2013-02-06 18:13:00,
2013-02-06 13:18:00,45.6,28.5,30.21,WNW,290,5.0,11.0,51,0.00,,---,0.00,VWS V14.01,2013-02-06 18:18:00,
2013-02-06 13:23:00,45.3,28.7,30.20,NW,325,7.0,12.0,52,0.00,,---,0.00,VWS V14.01,2013-02-06 18:23:00,
2013-02-06 13:28:00,45.0,28.9,30.20,NW,311,5.0,12.0,53,0.00,,---,0.00,VWS V14.01,2013-02-06 18:28:00,
2013-02-06 13:33:00,45.1,29.0,30.19,NW,323,5.0,7.0,53,0.00,,---,0.00,VWS V14.01,2013-02-06 18:33:00,
2013-02-06 13:38:00,45.2,28.6,30.20,SW,217,2.0,7.0,52,0.00,,---,0.00,VWS V14.01,2013-02-06 18:38:00,
2013-02-06 13:43:00,45.8,28.7,30.19,SSW,194,7.0,7.0,51,0.00,,---,0.00,VWS V14.01,2013-02-06 18:43:00,
2013-02-06 13:48:00,46.1,28.5,30.19,WNW,289,1.0,8.0,50,0.00,,---,0.00,VWS V14.01,2013-02-06 18:48:00,
2013-02-06 13:53:00,46.0,28.9,30.19,NNE,26,3.0,8.0,51,0.00,,---,0.00,VWS V14.01,2013-02-06 18:53:00,
2013-02-06 13:58:00,45.9,29.3,30.20,NNW,330,7.0,14.0,52,0.00,,---,0.00,VWS V14.01,2013-02-06 18:58:00,
2013-02-06 14:03:00,45.7,28.6,30.19,North,355,5.0,9.0,51,0.00,,---,0.00,VWS V14.01,2013-02-06 19:03:00,
2013-02-06 14:08:00,45.7,29.1,30.19,NW,306,3.0,13.0,52,0.00,,---,0.00,VWS V14.01,2013-02-06 19:08:00,
2013-02-06 14:13:00,46.0,29.4,30.19,NW,318,7.0,13.0,52,0.00,,---,0.00,VWS V14.01,2013-02-06 19:13:00,
2013-02-06 14:18:00,46.0,29.4,30.19,NNW,337,7.0,13.0,52,0.00,,---,0.00,VWS V14.01,2013-02-06 19:18:00,
2013-02-06 14:23:00,45.5,28.4,30.20,NW,304,1.0,13.0,51,0.00,,---,0.00,VWS V14.01,2013-02-06 19:23:00,
2013-02-06 14:28:00,45.6,29.0,30.20,NW,309,11.0,13.0,52,0.00,,---,0.00,VWS V14.01,2013-02-06 19:28:00,
2013-02-06 14:33:00,46.1,29.5,30.20,NW,307,3.0,9.0,52,0.00,,---,0.00,VWS V14.01,2013-02-06 19:33:00,
2013-02-06 14:38:00,46.4,28.8,30.20,NW,311,4.0,13.0,50,0.00,,---,0.00,VWS V14.01,2013-02-06 19:38:00,
2013-02-06 14:43:00,46.6,29.0,30.20,NW,326,10.0,13.0,50,0.00,,---,0.00,VWS V14.01,2013-02-06 19:43:00,
2013-02-06 14:48:00,47.0,28.9,30.20,WNW,303,7.0,13.0,49,0.00,,---,0.00,VWS V14.01,2013-02-06 19:48:00,
2013-02-06 14:53:00,46.4,28.8,30.20,NNW,335,10.0,13.0,50,0.00,,---,0.00,VWS V14.01,2013-02-06 19:53:00,
2013-02-06 14:58:00,46.3,28.7,30.21,NNW,342,3.0,13.0,50,0.00,,---,0.00,VWS V14.01,2013-02-06 19:58:00,
2013-02-06 15:03:00,46.2,28.6,30.20,WNW,291,3.0,4.0,50,0.00,,---,0.00,VWS V14.01,2013-02-06 20:03:00,
2013-02-06 15:08:00,46.6,29.0,30.20,NNW,330,5.0,9.0,50,0.00,,---,0.00,VWS V14.01,2013-02-06 20:08:00,
2013-02-06 15:13:00,46.8,28.7,30.20,NNE,12,2.0,9.0,49,0.00,,---,0.00,VWS V14.01,2013-02-06 20:13:00,
2013-02-06 15:18:00,47.1,29.4,30.21,West,281,7.0,10.0,50,0.00,,---,0.00,VWS V14.01,2013-02-06 20:18:00,
2013-02-06 15:23:00,47.4,29.2,30.21,NW,306,0.0,10.0,49,0.00,,---,0.00,VWS V14.01,2013-02-06 20:23:00,
2013-02-06 15:28:00,48.0,29.3,30.20,NW,311,3.0,10.0,48,0.00,,---,0.00,VWS V14.01,2013-02-06 20:28:00,
2013-02-06 15:33:00,47.5,28.8,30.20,North,360,6.0,7.0,48,0.00,,---,0.00,VWS V14.01,2013-02-06 20:33:00,
2013-02-06 15:38:00,46.9,28.8,30.21,NW,322,9.0,9.0,49,0.00,,---,0.00,VWS V14.01,2013-02-06 20:38:00,
2013-02-06 15:43:00,46.6,29.0,30.21,NNW,345,6.0,9.0,50,0.00,,---,0.00,VWS V14.01,2013-02-06 20:43:00,
2013-02-06 15:48:00,46.4,28.8,30.21,North,360,6.0,10.0,50,0.00,,---,0.00,VWS V14.01,2013-02-06 20:48:00,
2013-02-06 15:53:00,46.4,28.8,30.21,NNW,333,4.0,10.0,50,0.00,,---,0.00,VWS V14.01,2013-02-06 20:53:00,
2013-02-06 15:58:00,46.6,28.5,30.21,NW,323,5.0,10.0,49,0.00,,---,0.00,VWS V14.01,2013-02-06 20:58:00,
2013-02-06 16:03:00,46.8,29.2,30.21,WNW,294,3.0,7.0,50,0.00,,---,0.00,VWS V14.01,2013-02-06 21:03:00,
2013-02-06 16:08:00,47.0,28.9,30.21,NW,323,3.0,7.0,49,0.00,,---,0.00,VWS V14.01,2013-02-06 21:08:00,
2013-02-06 16:13:00,47.1,29.4,30.21,North,349,6.0,9.0,50,0.00,,---,0.00,VWS V14.01,2013-02-06 21:13:00,
2013-02-06 16:18:00,46.6,29.0,30.21,NNW,332,6.0,9.0,50,0.00,,---,0.00,VWS V14.01,2013-02-06 21:18:00,
2013-02-06 16:23:00,46.3,28.7,30.22,NW,323,3.0,9.0,50,0.00,,---,0.00,VWS V14.01,2013-02-06 21:23:00,
2013-02-06 16:28:00,46.2,28.6,30.22,NNW,347,2.0,9.0,50,0.00,,---,0.00,VWS V14.01,2013-02-06 21:28:00,
2013-02-06 16:33:00,45.9,28.8,30.22,NNW,327,3.0,7.0,51,0.00,,---,0.00,VWS V14.01,2013-02-06 21:33:00,
2013-02-06 16:38:00,45.7,28.6,30.22,North,350,5.0,10.0,51,0.00,,---,0.00,VWS V14.01,2013-02-06 21:38:00,
2013-02-06 16:43:00,45.6,28.5,30.23,NNE,25,4.0,10.0,51,0.00,,---,0.00,VWS V14.01,2013-02-06 21:43:00,
2013-02-06 16:48:00,45.6,28.5,30.23,NNE,18,3.0,10.0,51,0.00,,---,0.00,VWS V14.01,2013-02-06 21:48:00,
2013-02-06 16:53:00,45.5,28.9,30.23,NNW,348,3.0,10.0,52,0.00,,---,0.00,VWS V14.01,2013-02-06 21:53:00,
2013-02-06 16:58:00,45.3,28.7,30.24,NNE,27,6.0,10.0,52,0.00,,---,0.00,VWS V14.01,2013-02-06 21:58:00,
2013-02-06 17:03:00,44.8,28.3,30.24,North,360,4.0,9.0,52,0.00,,---,0.00,VWS V14.01,2013-02-06 22:03:00,
2013-02-06 17:08:00,44.3,28.3,30.24,North,360,5.0,10.0,53,0.00,,---,0.00,VWS V14.01,2013-02-06 22:08:00,
2013-02-06 17:13:00,43.9,28.4,30.24,North,355,5.0,10.0,54,0.00,,---,0.00,VWS V14.01,2013-02-06 22:13:00,
2013-02-06 17:18:00,43.5,28.4,30.25,North,5,6.0,10.0,55,0.00,,---,0.00,VWS V14.01,2013-02-06 22:18:00,
2013-02-06 17:23:00,43.1,28.0,30.25,North,355,6.0,11.0,55,0.00,,---,0.00,VWS V14.01,2013-02-06 22:23:00,
2013-02-06 17:28:00,42.9,27.9,30.25,NNE,19,4.0,11.0,55,0.00,,---,0.00,VWS V14.01,2013-02-06 22:28:00,
2013-02-06 17:33:00,42.6,27.6,30.25,NNE,22,2.0,5.0,55,0.00,,---,0.00,VWS V14.01,2013-02-06 22:33:00,
2013-02-06 17:38:00,42.3,27.3,30.25,NE,37,3.0,5.0,55,0.00,,---,0.00,VWS V14.01,2013-02-06 22:38:00,
2013-02-06 17:43:00,41.9,27.4,30.25,NNE,17,3.0,5.0,56,0.00,,---,0.00,VWS V14.01,2013-02-06 22:43:00,
2013-02-06 17:48:00,41.6,27.1,30.25,NNE,27,1.0,5.0,56,0.00,,---,0.00,VWS V14.01,2013-02-06 22:48:00,
2013-02-06 17:53:00,41.2,27.1,30.25,NNE,19,3.0,5.0,57,0.00,,---,0.00,VWS V14.01,2013-02-06 22:53:00,
2013-02-06 17:58:00,40.8,27.2,30.26,NNE,13,5.0,7.0,58,0.00,,---,0.00,VWS V14.01,2013-02-06 22:58:00,
2013-02-06 18:03:00,40.5,27.3,30.26,NNW,347,5.0,7.0,59,0.00,,---,0.00,VWS V14.01,2013-02-06 23:03:00,
2013-02-06 18:08:00,40.0,27.2,30.27,North,355,5.0,9.0,60,0.00,,---,0.00,VWS V14.01,2013-02-06 23:08:00,
2013-02-06 18:13:00,39.8,27.1,30.27,North,10,4.0,9.0,60,0.00,,---,0.00,VWS V14.01,2013-02-06 23:13:00,
2013-02-06 18:18:00,39.5,26.8,30.28,NNE,28,2.0,9.0,60,0.00,,---,0.00,VWS V14.01,2013-02-06 23:18:00,
2013-02-06 18:23:00,39.3,27.0,30.28,North,350,4.0,9.0,61,0.00,,---,0.00,VWS V14.01,2013-02-06 23:23:00,
2013-02-06 18:28:00,39.1,26.8,30.28,NNE,24,4.0,9.0,61,0.00,,---,0.00,VWS V14.01,2013-02-06 23:28:00,
2013-02-06 18:33:00,38.9,26.6,30.29,North,5,2.0,5.0,61,0.00,,---,0.00,VWS V14.01,2013-02-06 23:33:00,
2013-02-06 18:37:00,38.8,26.9,30.30,North,5,2.0,5.0,62,0.00,,---,0.00,VWS V14.01,2013-02-06 23:37:00,
2013-02-06 18:42:00,38.5,26.6,30.30,North,5,0.0,5.0,62,0.00,,---,0.00,VWS V14.01,2013-02-06 23:42:00,
2013-02-06 18:47:00,38.3,26.8,30.30,North,5,3.0,5.0,63,0.00,,---,0.00,VWS V14.01,2013-02-06 23:47:00,
2013-02-06 18:52:00,38.1,26.6,30.30,North,5,2.0,5.0,63,0.00,,---,0.00,VWS V14.01,2013-02-06 23:52:00,
2013-02-06 18:57:00,38.0,26.5,30.30,North,5,2.0,5.0,63,0.00,,---,0.00,VWS V14.01,2013-02-06 23:57:00,
2013-02-06 19:02:00,37.9,26.5,30.30,North,5,1.0,1.0,63,0.00,,---,0.00,VWS V14.01,2013-02-07 00:02:00,
2013-02-06 19:07:00,37.7,26.6,30.30,North,360,0.0,2.0,64,0.00,,---,0.00,VWS V14.01,2013-02-07 00:07:00,
2013-02-06 19:12:00,37.5,26.5,30.30,North,360,0.0,2.0,64,0.00,,---,0.00,VWS V14.01,2013-02-07 00:12:00,
2013-02-06 19:17:00,36.8,26.1,30.31,North,5,0.0,2.0,65,0.00,,---,0.00,VWS V14.01,2013-02-07 00:17:00,
2013-02-06 19:22:00,36.3,26.0,30.31,North,360,0.0,2.0,66,0.00,,---,0.00,VWS V14.01,2013-02-07 00:22:00,
2013-02-06 19:27:00,35.9,26.0,30.31,North,360,0.0,2.0,67,0.00,,---,0.00,VWS V14.01,2013-02-07 00:27:00,
2013-02-06 19:32:00,35.5,25.6,30.31,North,360,0.0,0.0,67,0.00,,---,0.00,VWS V14.01,2013-02-07 00:32:00,
2013-02-06 19:37:00,34.8,25.7,30.31,North,5,0.0,1.0,69,0.00,,---,0.00,VWS V14.01,2013-02-07 00:37:00,
2013-02-06 19:42:00,34.4,25.6,30.31,North,5,0.0,1.0,70,0.00,,---,0.00,VWS V14.01,2013-02-07 00:42:00,
2013-02-06 19:47:00,34.1,25.4,30.32,North,5,0.0,1.0,70,0.00,,---,0.00,VWS V14.01,2013-02-07 00:47:00,
2013-02-06 19:52:00,33.8,25.4,30.32,North,5,0.0,1.0,71,0.00,,---,0.00,VWS V14.01,2013-02-07 00:52:00,
2013-02-06 19:57:00,33.5,25.1,30.32,North,5,0.0,1.0,71,0.00,,---,0.00,VWS V14.01,2013-02-07 00:57:00,
2013-02-06 20:02:00,33.3,24.9,30.31,North,5,0.0,0.0,71,0.00,,---,0.00,VWS V14.01,2013-02-07 01:02:00,
2013-02-06 20:07:00,33.2,25.2,30.32,North,360,0.0,0.0,72,0.00,,---,0.00,VWS V14.01,2013-02-07 01:07:00,
2013-02-06 20:12:00,32.9,24.9,30.31,North,5,0.0,0.0,72,0.00,,---,0.00,VWS V14.01,2013-02-07 01:12:00,
2013-02-06 20:17:00,32.6,24.9,30.32,North,5,0.0,0.0,73,0.00,,---,0.00,VWS V14.01,2013-02-07 01:17:00,
2013-02-06 20:22:00,32.4,24.7,30.33,North,360,0.0,0.0,73,0.00,,---,0.00,VWS V14.01,2013-02-07 01:22:00,
2013-02-06 20:27:00,32.1,24.8,30.33,North,5,0.0,0.0,74,0.00,,---,0.00,VWS V14.01,2013-02-07 01:27:00,
2013-02-06 20:32:00,31.9,24.6,30.33,North,5,0.0,0.0,74,0.00,,---,0.00,VWS V14.01,2013-02-07 01:32:00,
2013-02-06 20:37:00,31.5,24.5,30.33,North,5,0.0,2.0,75,0.00,,---,0.00,VWS V14.01,2013-02-07 01:37:00,
2013-02-06 20:42:00,31.2,24.5,30.33,North,5,0.0,2.0,76,0.00,,---,0.00,VWS V14.01,2013-02-07 01:42:00,
2013-02-06 20:47:00,30.9,24.2,30.33,North,5,0.0,2.0,76,0.00,,---,0.00,VWS V14.01,2013-02-07 01:47:00,
2013-02-06 20:52:00,30.7,24.0,30.33,North,5,0.0,2.0,76,0.00,,---,0.00,VWS V14.01,2013-02-07 01:52:00,
2013-02-06 20:57:00,30.5,24.2,30.33,North,5,0.0,2.0,77,0.00,,---,0.00,VWS V14.01,2013-02-07 01:57:00,
2013-02-06 21:02:00,30.3,24.0,30.33,North,360,0.0,0.0,77,0.00,,---,0.00,VWS V14.01,2013-02-07 02:02:00,
2013-02-06 21:07:00,30.1,24.1,30.34,North,360,0.0,0.0,78,0.00,,---,0.00,VWS V14.01,2013-02-07 02:07:00,
2013-02-06 21:12:00,29.9,23.9,30.34,North,5,1.0,1.0,78,0.00,,---,0.00,VWS V14.01,2013-02-07 02:12:00,
2013-02-06 21:17:00,29.6,23.6,30.34,North,5,2.0,2.0,78,0.00,,---,0.00,VWS V14.01,2013-02-07 02:17:00,
2013-02-06 21:22:00,29.4,23.7,30.34,North,5,0.0,2.0,79,0.00,,---,0.00,VWS V14.01,2013-02-07 02:22:00,
2013-02-06 21:27:00,29.5,24.1,30.35,North,360,1.0,2.0,80,0.00,,---,0.00,VWS V14.01,2013-02-07 02:27:00,
2013-02-06 21:32:00,29.5,24.1,30.35,North,5,1.0,2.0,80,0.00,,---,0.00,VWS V14.01,2013-02-07 02:32:00,
2013-02-06 21:37:00,29.5,24.1,30.35,North,5,0.0,2.0,80,0.00,,---,0.00,VWS V14.01,2013-02-07 02:37:00,
2013-02-06 21:42:00,29.5,24.1,30.35,North,5,0.0,2.0,80,0.00,,---,0.00,VWS V14.01,2013-02-07 02:42:00,
2013-02-06 21:47:00,29.3,23.9,30.35,North,5,0.0,2.0,80,0.00,,---,0.00,VWS V14.01,2013-02-07 02:47:00,
2013-02-06 21:52:00,28.9,23.5,30.35,North,5,0.0,2.0,80,0.00,,---,0.00,VWS V14.01,2013-02-07 02:52:00,
2013-02-06 21:57:00,28.4,23.0,30.35,North,5,2.0,2.0,80,0.00,,---,0.00,VWS V14.01,2013-02-07 02:57:00,
2013-02-06 22:02:00,27.8,22.7,30.35,ENE,75,1.0,1.0,81,0.00,,---,0.00,VWS V14.01,2013-02-07 03:02:00,
2013-02-06 22:07:00,27.6,22.8,30.35,ENE,76,1.0,1.0,82,0.00,,---,0.00,VWS V14.01,2013-02-07 03:07:00,
2013-02-06 22:12:00,27.4,22.6,30.34,ENE,75,0.0,2.0,82,0.00,,---,0.00,VWS V14.01,2013-02-07 03:12:00,
2013-02-06 22:17:00,27.5,23.0,30.34,ENE,76,0.0,2.0,83,0.00,,---,0.00,VWS V14.01,2013-02-07 03:17:00,
2013-02-06 22:22:00,27.4,23.2,30.34,ENE,76,0.0,2.0,84,0.00,,---,0.00,VWS V14.01,2013-02-07 03:22:00,
2013-02-06 22:27:00,27.5,23.3,30.34,ENE,76,0.0,2.0,84,0.00,,---,0.00,VWS V14.01,2013-02-07 03:27:00,
2013-02-06 22:32:00,27.4,23.2,30.34,ENE,76,0.0,0.0,84,0.00,,---,0.00,VWS V14.01,2013-02-07 03:32:00,
2013-02-06 22:37:00,27.2,23.0,30.34,ENE,76,0.0,0.0,84,0.00,,---,0.00,VWS V14.01,2013-02-07 03:37:00,
2013-02-06 22:42:00,27.1,22.9,30.34,ENE,76,0.0,0.0,84,0.00,,---,0.00,VWS V14.01,2013-02-07 03:42:00,
2013-02-06 22:47:00,27.0,22.8,30.34,ENE,76,0.0,0.0,84,0.00,,---,0.00,VWS V14.01,2013-02-07 03:47:00,
2013-02-06 22:52:00,27.0,22.8,30.34,ENE,76,0.0,0.0,84,0.00,,---,0.00,VWS V14.01,2013-02-07 03:52:00,
2013-02-06 22:57:00,27.0,23.1,30.34,ENE,75,0.0,0.0,85,0.00,,---,0.00,VWS V14.01,2013-02-07 03:57:00,
2013-02-06 23:02:00,27.1,23.2,30.34,ENE,76,0.0,0.0,85,0.00,,---,0.00,VWS V14.01,2013-02-07 04:02:00,
2013-02-06 23:07:00,27.1,23.2,30.34,ENE,76,0.0,1.0,85,0.00,,---,0.00,VWS V14.01,2013-02-07 04:07:00,
2013-02-06 23:12:00,27.0,23.1,30.34,ENE,76,0.0,1.0,85,0.00,,---,0.00,VWS V14.01,2013-02-07 04:12:00,
2013-02-06 23:17:00,26.9,23.0,30.33,ENE,76,0.0,1.0,85,0.00,,---,0.00,VWS V14.01,2013-02-07 04:17:00,
2013-02-06 23:22:00,26.7,22.8,30.33,ENE,76,0.0,1.0,85,0.00,,---,0.00,VWS V14.01,2013-02-07 04:22:00,
2013-02-06 23:27:00,26.5,22.6,30.33,ENE,76,0.0,1.0,85,0.00,,---,0.00,VWS V14.01,2013-02-07 04:27:00,
2013-02-06 23:32:00,26.2,22.3,30.33,ENE,76,0.0,0.0,85,0.00,,---,0.00,VWS V14.01,2013-02-07 04:32:00,
2013-02-06 23:37:00,26.1,22.2,30.34,ENE,75,0.0,0.0,85,0.00,,---,0.00,VWS V14.01,2013-02-07 04:37:00,
2013-02-06 23:42:00,26.1,22.2,30.35,ENE,76,0.0,1.0,85,0.00,,---,0.00,VWS V14.01,2013-02-07 04:42:00,
2013-02-06 23:47:00,26.2,22.6,30.35,ENE,76,0.0,1.0,86,0.00,,---,0.00,VWS V14.01,2013-02-07 04:47:00,
2013-02-06 23:52:00,26.2,22.6,30.35,ENE,76,1.0,2.0,86,0.00,,---,0.00,VWS V14.01,2013-02-07 04:52:00,
2013-02-06 23:57:00,26.1,22.5,30.35,ENE,76,1.0,2.0,86,0.00,,---,0.00,VWS V14.01,2013-02-07 04:57:00,